Flag for China Weather past 2 weeks in Chengdu, Sichuan, China

Now
72 °F

Clear.


Feels Like: 75 °F
Forecast: 61 / 90 °F
Wind: No wind

Location: Chengdu Airport

Current Time: Apr 28, 2015 at 10:44:37 PM

Latest Report: Apr 28, 2015 at 10:00 PM


Visibility: 10 mi

Pressure: 29.86 "Hg

Humidity: 65%

Dew point: 59 °F

Location of ChengduLocation

Historic Weather in Chengdu — Graph

°F

Chengdu temperature yesterday

Maximum temperature yesterday: 88 °F (at 5:00 PM)
Minimum temperature yesterday: 63 °F (at 7:00 AM)
Average temperature yesterday: 75 °F

Past Weeks' High & Low Weather Summary

 TemperatureHumidityPressure
High91 °F (Apr 28, 3:00 PM)94% (Apr 15, 4:00 AM)30.24 "Hg (Apr 15, 4:00 AM)
Low54 °F (Apr 20, 5:00 AM)24% (Apr 28, 3:00 PM)29.42 "Hg (Apr 17, 4:00 PM)
Average68 °F64%29.94 "Hg
* Reported Apr 13 9:00 PM — Apr 28 9:00 PM, Chengdu, Weather by CustomWeather, © 2015

Note: Actual official high and low records may vary slightly from our data, if they occured in-between our weather recording intervals... More about our weather records

Advertising

Chengdu weather history for previous 24 hours

 ConditionsComfort  
Time TempWeatherWind HumidityBarometerVisibility
9:00 PM
Tue, Apr 28
75 °FClear.1 mph54%29.83 "Hg10 mi
8:00 PM79 °FClear.No wind42%29.83 "Hg10 mi
7:00 PM86 °FSunny.1 mph29%29.80 "Hg10 mi
6:00 PM90 °FSunny.No wind26%29.80 "Hg10 mi
5:00 PM88 °FSunny.No wind29%29.80 "Hg10 mi
4:00 PM90 °FPassing clouds.3 mph24%29.80 "HgN/A
3:00 PM91 °FSunny.3 mph24%29.83 "Hg10 mi
2:00 PM88 °FSunny.1 mph27%29.86 "Hg10 mi
1:00 PM88 °FSunny.1 mph33%29.89 "Hg10 mi
12:00 PM86 °FClear.1 mph35%29.92 "Hg4 mi
11:00 AM81 °FHaze.1 mph48%29.92 "Hg2 mi
10:00 AM75 °FHaze.1 mph57%29.92 "Hg1 mi
9:00 AM72 °FHaze.3 mph69%29.92 "Hg1 mi
8:00 AM68 °FFog.1 mph78%29.89 "Hg1 mi
7:00 AM63 °FFog.No wind88%29.89 "Hg1 mi
6:00 AM63 °FFog.No wind88%29.86 "Hg2 mi
5:00 AM64 °FFog.No wind83%29.83 "Hg2 mi
4:00 AM64 °FFog.No wind78%29.83 "Hg2 mi
3:00 AM68 °FFog.1 mph69%29.86 "Hg3 mi
2:00 AM68 °FHaze.No wind73%29.86 "Hg3 mi
1:00 AM70 °FHaze.3 mph64%29.86 "Hg3 mi
12:00 AM72 °FHaze.3 mph61%29.89 "Hg3 mi
11:00 PM
Mon, Apr 27
73 °FHaze.3 mph57%29.89 "Hg3 mi
10:00 PM73 °FHaze.3 mph57%29.89 "Hg3 mi
Weather by CustomWeather, © 2015

See weather overviewHow to use our weather pages